アトラス彗星

C/2018 L2 ( ATLAS )

English version
Home page
Updated on May 20, 2019

---------------------------------------------------------------------

・ プロフィール

発見日 2018年6月6日
発見光度 15.6等
発見者 Asteroid Terrestrial-impact Last Alert System (ATLAS) search program

・ 写真集

・ 軌道要素

Epoch 2018 Nov. 18.0 TT = JDT 2458440.5
T 2018 Dec. 2.57774 TT                                  MPCW
q   1.7116881            (2000.0)            P               Q
z  +0.0041023      Peri.   56.22913     +0.03219785     +0.56732531
 +/-0.0000013      Node   243.01861     -0.89265583     +0.38665603
e   0.9929782      Incl.   67.42371     +0.44958743     +0.72707572
From 551 observations 2018 June 4-2019 May 2, mean residual 0".5.

・ 星図

・ 光度変化

        m1 = 3.0 + 5 logΔ + 25.0 log r

---------------------------------------------------------------------

軌道要素はM.P.E.C. 2019-J142に掲載されたものです。
星図はステラナビゲータ Ver.10 (アストロアーツ) で作成したものです。
光度グラフはComet for Windowsで作成したものです。

---------------------------------------------------------------------

Copyright(C) Seiichi Yoshida (comet@aerith.net). All rights reserved.